Location: Boiro
(42.6475°N, 8.8834°W)
Time: 19:35:15
(UTC+01:00)

Explorer 7 - Visible Passes

Search period start: 30 November 2021 00:00
Search period end: 10 December 2021 00:00
Orbit: 483 x 675 km, 50.3° (Epoch: 29 November)

Date Brightness Start Highest point End Pass type
(mag) Time Alt. Az. Time Alt. Az. Time Alt. Az.
30 Nov 9.2 07:36:21 10° SSW 07:39:55 26° SE 07:43:19 10° E visible
01 Dec 8.2 07:39:47 10° SSW 07:43:49 40° SE 07:47:40 10° ENE visible
02 Dec 9.9 06:06:29 10° SSE 06:07:53 11° SE 06:09:16 10° ESE visible
02 Dec 7.3 07:43:31 10° SW 07:47:47 63° SE 07:51:49 10° ENE visible
03 Dec 9.4 06:09:33 14° SSE 06:11:42 19° SE 06:14:40 10° E visible
03 Dec 6.8 07:47:28 10° WSW 07:51:49 87° NNW 07:55:53 10° ENE visible
04 Dec 8.6 06:14:43 27° SSE 06:15:34 29° SE 06:19:14 10° ENE visible
04 Dec 6.9 07:51:35 10° WSW 07:55:52 61° NNW 07:59:54 10° NE visible
05 Dec 7.8 06:19:31 45° SE 06:19:31 45° SE 06:23:30 10° ENE visible
05 Dec 7.2 07:55:49 10° W 07:59:58 45° NNW 08:03:54 10° NE visible
06 Dec 7.4 06:24:03 59° E 06:24:03 59° E 06:27:37 10° ENE visible
06 Dec 7.6 08:00:20 11° W 08:04:08 36° NNW 08:07:55 10° NE visible
07 Dec 7.4 06:28:23 53° NE 06:28:23 53° NE 06:31:39 10° ENE visible
07 Dec 7.8 08:04:40 11° WNW 08:08:20 31° NNW 08:11:58 10° NE visible
08 Dec 7.7 06:32:35 43° NNE 06:32:35 43° NNE 06:35:39 10° NE visible
08 Dec 8.0 08:08:52 10° WNW 08:12:32 28° N 08:16:06 10° NE visible
09 Dec 7.9 06:36:40 36° NNE 06:36:40 36° NNE 06:39:39 10° NE visible
09 Dec 8.1 08:13:05 10° WNW 08:16:47 28° N 08:20:17 10° ENE visible
